Home   Weather   Hurghada   Past weeks

Flag for Egypt Past Weather in Hurghada, Egypt — Yesterday and Last 2 Weeks

Now
66 °F

Clear.


Feels Like: 66 °F
Forecast: 64 / 76 °F
Wind: 12 mph from Northwest

Location: Hurguada

Current Time: Dec 7, 2016 at 10:28:19 pm

Latest Report: Dec 7, 2016 at 10:00 pm


Visibility: 10 mi

Pressure: 30.12 "Hg

Humidity: 49%

Dew Point: 46 °F

Location of HurghadaLocation

Past Weather in Hurghada — Graph

°F

Hurghada Temperature Yesterday

Maximum temperature yesterday: 77 °F (at 1:00 pm)
Minimum temperature yesterday: 61 °F (at 5:00 am)
Average temperature yesterday: 68 °F

High & Low Weather Summary for the Past Weeks

 TemperatureHumidityPressure
High90 °F (Nov 23, 1:00 pm)78% (Nov 29, 11:00 pm)30.24 "Hg (Nov 29, 11:00 pm)
Low57 °F (Dec 5, 5:00 am)20% (Nov 28, 11:00 am)29.83 "Hg (Dec 1, 1:00 pm)
Average70 °F43%30.01 "Hg
* Reported Nov 22 9:00 pm — Dec 7 9:00 pm, Hurghada, Weather by CustomWeather, © 2016

Note: Actual official high and low records may vary slightly from our data, if they occured in-between our weather recording intervals... More about our weather records

Advertising

Hurghada Weather History for the Previous 24 Hours

Scroll right to see more
 ConditionsComfort  
Time TempWeatherWind HumidityBarometerVisibility
9:00 pm
Wed, Dec 7
66 °FClear.12 mph49%30.12 "Hg10 mi
8:00 pm66 °FClear.6 mph46%30.12 "Hg10 mi
6:00 pm70 °FClear.15 mph53%30.07 "Hg10 mi
5:00 pm72 °FClear.14 mph47%30.07 "Hg10 mi
4:00 pm75 °FSunny.17 mph41%30.04 "Hg10 mi
3:00 pm77 °FSunny.17 mph36%30.04 "Hg10 mi
2:00 pm77 °FSunny.17 mph34%30.04 "Hg10 mi
1:00 pm75 °FSunny.18 mph41%30.07 "Hg10 mi
12:00 pm75 °FSunny.16 mph36%30.09 "Hg10 mi
11:00 am73 °FSunny.17 mph41%30.12 "Hg10 mi
10:00 am70 °FSunny.13 mph46%30.15 "Hg10 mi
9:00 am68 °FSunny.15 mph49%30.15 "Hg10 mi
8:00 am63 °FSunny.16 mph59%30.12 "Hg10 mi
7:00 am59 °FSunny.14 mph68%30.12 "Hg10 mi
6:00 am61 °FClear.13 mph63%30.09 "Hg10 mi
5:00 am61 °FClear.13 mph68%30.09 "Hg10 mi
4:00 am63 °FClear.13 mph59%30.09 "Hg10 mi
3:00 am63 °FClear.14 mph59%30.07 "Hg10 mi
2:00 am66 °FClear.13 mph49%30.07 "Hg10 mi
1:00 am63 °FClear.12 mph56%30.07 "Hg10 mi
12:00 am64 °FClear.12 mph49%30.09 "Hg10 mi
11:00 pm
Tue, Dec 6
68 °FClear.10 mph43%30.09 "Hg10 mi
10:00 pm64 °FClear.6 mph52%30.07 "Hg10 mi
Weather by CustomWeather, © 2016

See weather overviewHow to use our weather pages